Regional Weather Roundup
Issued by NWS

Home | Current Version | Previous Version | Text Only | Print | Product List | Glossary On
Versions: 1 2 3 4 5 6 7 8 9 10 11 12 13 14 15 16 17 18 19 20 21 22 23 24 25 26 27 28 29 30 31 32 33 34 35 36 37 38 39 40 41 42 43 44 45 46 47 48 49 50
196
ASCA44 KEWX 102220
RWRMX

LATIN AMERICA AND CARIBBEAN REGIONAL WEATHER ROUNDUP
NATIONAL WEATHER SERVICE AUSTIN/SAN ANTONIO TX
400 PM CST SAT DEC 10 2016

NOTE: "FAIR" INDICATED FEW OR NO CLOUDS BELOW 12,000 FEET WITH NO
SIGNIFICANT WEATHER AND/OR OBSTRUCTIONS TO VISIBILITY.

BAJA CALIFORNIA

CITY           SKY/WX    TMP DP  RH WIND       PRES   REMARKS
LORETO         SUNNY     75  57  53 NE12      29.99
LA PAZ         MOSUNNY   77  52  41 N10       30.01
MEXICALI       MOSUNNY   75  28  17 CALM      30.03
S.J. DEL CABO  MOSUNNY   79  63  57 SE12      29.99F
TIJUANA        PTSUNNY   66  52  59 NW7       30.13F

NORTHWESTERN MEXICO

CITY           SKY/WX    TMP DP  RH WIND       PRES   REMARKS
CULIACAN       MOSUNNY   88  52  29 CALM      29.95
DURANGO        MOSUNNY   75  32  20 SW10      30.24
GUAYMAS        SUNNY     77  57  50 SW12      29.94
HERMOSILLO     SUNNY     84  41  21 W6        30.02
CD. JUAREZ     MOSUNNY   61  41  48 SW9       30.06
LOS MOCHIS     PTSUNNY   81  52  36 NW13      29.98F
OBREGON        SUNNY     86  43  22 SW7       29.95

NORTHEASTERN MEXICO

CITY           SKY/WX    TMP DP  RH WIND       PRES   REMARKS
CHIHUAHUA      SUNNY     63  41  45 E6        30.18
MATAMOROS      CLOUDY    57  48  72 NW6       30.25
MONCLOVA       MOSUNNY   59  46  63 CALM      30.22F
MONTERREY      DRIZZLE   52  50  93 E3        30.23F FOG
NUEVO LAREDO   CLOUDY    48  46  93 E7        30.28  FOG     WCI  45
PIEDRAS NEGRAS CLOUDY    50  39  66 SE7       30.28F WCI  47
REYNOSA        CLOUDY    52  41  66 NW9       30.26
SALTILLO       SUNNY     72  43  35 N7        30.27S
TORREON        MOSUNNY   73  50  43 E9        30.16F
CD. VICTORIA   MOSUNNY   66  55  68 E5        30.22

WESTERN MEXICO

CITY           SKY/WX    TMP DP  RH WIND       PRES   REMARKS
AGUASCALIENTES PTSUNNY   73  39  29 S6        30.31
COLIMA         MOSUNNY   84  61  45 CALM      30.00F
DEL BAJIO      PTSUNNY   77  45  31 S6        30.32F
GUADALAJARA    MOSUNNY   75  46  35 N3        30.22
MANZANILLO     PTSUNNY   84  77  79 W9        29.86F HX  94
MAZATLAN       SUNNY     88  54  31 W10       29.93F
P. VALLARTA    PTSUNNY   81  72  74 SW10      29.94F
URUAPAN        CLOUDY    73  61  64 SW7       30.20F THUNDER
ZACATECAS      MOSUNNY   68  36  30 CALM      30.33S

CENTRAL MEXICO

CITY           SKY/WX    TMP DP  RH WIND       PRES   REMARKS
CUERNAVACA     PTSUNNY   81  50  34 CALM      30.13F
MEXICO CITY    MOSUNNY   68  46  45 NW8       30.35F
MORELIA        PTSUNNY   75  46  35 NW8       30.25
POZA RICA      CLOUDY    66  64  94 N7        30.25S
PUEBLA         PTSUNNY   66  46  48 NW10      30.36F
QUERETARO      PTSUNNY   70  48  46 E17       30.35F
S. LUIS POTOSI PTSUNNY   66  46  48 NE14      30.31F
TAMPICO        DRIZZLE   59  57  94 W7        30.22F
TOLUCA         MOSUNNY   66  41  39 NW9       30.40F

SOUTHERN MEXICO

CITY           SKY/WX    TMP DP  RH WIND       PRES   REMARKS
ACAPULCO       SUNNY     86  75  70 W10       29.85F HX  95
B. DE HUATULCO PTSUNNY   86  72  62 W23       29.92  HX  92
OAXACA         PTSUNNY   70  46  43 NW17      30.21F
P. ESCONDIDO   MOSUNNY   84  75  74 SW8       29.97F HX  92
VERACRUZ       CLOUDY    72  66  83 N7        30.12S
ZIHUATANEJO    MOSUNNY   86  77  74 SW7       29.88F HX  97

YUCATAN PENINSULA

CITY           SKY/WX    TMP DP  RH WIND       PRES   REMARKS
CAMPECHE       PTSUNNY   79  73  83 N14G29    30.01S
CANCUN         LGT RAIN  75  73  94 NE5       30.07R
CHETUMAL       PTSUNNY   81  73  78 NE6       30.02S
CD. DEL CARMEN PTSUNNY   81  72  74 NW5       30.05S
COZUMEL        MOSUNNY   79  73  83 NE9       30.03S
MERIDA         CLOUDY    75  70  83 NE13      30.09S
MINATITLAN     CLOUDY    73  68  83 N12       30.03R
TAPACHULA      MOSUNNY   86  75  70 SW8       29.84F HX  95
TUX. GUTIERREZ MOSUNNY   77  61  57 W18G30    30.02F
VILLAHERMOSA   PTSUNNY   77  72  83 SW9       30.08S

CENTRAL AMERICA

CITY           SKY/WX    TMP DP  RH WIND       PRES   REMARKS
BELIZE CITY    MOSUNNY   81  75  83 SE2       30.04R
MANAGUA        PTCLDY    84  66  54 E18       29.83S

CARIBBEAN

CITY           SKY/WX    TMP DP  RH WIND       PRES   REMARKS
ARUBA          PTCLDY    79  75  89 E14       29.86F
CURACAO        PTCLDY    81  75  83 E14       29.89S
KINGSTON       PTCLDY    86  72  62 S7        29.94S HX  92
NASSAU         MOCLDY    75  70  83 NE9       30.14S
SAN JUAN       PTCLDY    82  75  78 E8        30.03R
SANTO DOMINGO  MOCLDY    81  75  83 N7        30.00S
ST. CROIX      PTCLDY    81  72  74 E9        30.03
ST. KITTS      PTCLDY    81  73  78 E10       30.03R
ST. THOMAS     CLEAR     81  73  78 E7        30.03

$$





USA.gov is the U.S. government's official web portal to all federal, state and local government web resources and services.